{"data":{"norad_id":68139,"intl_designator":"2026-048A","name":"SHIYAN-30 03","alt_names":[],"object_type":"PAYLOAD","status":"ACTIVE","operator":null,"country":"PRC","launch_date":"2026-03-12","launch_site_code":"XICLF","launch_vehicle":null,"mission":null,"orbit_class":"UNKNOWN","rcs_meters":null,"size_class":null,"mass_kg":null,"dimensions":null,"purposes":[],"wikipedia_slug":null,"has_3d_model":false,"image_url":null,"decayed_at":null,"tle_current":{"epoch":"2026-09-20T20:36:10.764288Z","epoch_age_seconds":48110,"freshness":"FRESH","line1":"1 68139U 26048A   26263.85845792  .00001070  00000+0  10639-3 0  9993","line2":"2 68139  35.0000  54.5520 0003714  83.5237 276.5891 14.91949193 28661","mean_motion":14.91949193,"eccentricity":0.0003714,"inclination_deg":35,"raan_deg":54.552,"arg_perigee_deg":83.5237,"mean_anomaly_deg":276.5891,"bstar":0.00010639,"rev_number":2866,"period_min":96.518032031939,"perigee_km":589.26964630997,"apogee_km":594.44695882072,"semimajor_km":6969.9953025653,"source":"CELESTRAK","updated_at":"2026-09-21T09:00:17.096178Z"}}}